Location: Newark
(31.5350°N, 35.0986°E)
Time: 04:02:18
(UTC+00:00)

Vanguard 1 - Pass Details

Date: 23 September 2019
Orbit: 653 x 3830 km, 34.2° (Epoch: 17 October)

Event Time Altitude Azimuth Distance (km) Brightness Sun altitude
Rises 18:23:26 0° 179° (S) 6,156 13.9 -35.5°
Enters shadow 18:24:32 - 176° (S) 6,055 13.8 -35.8°
Reaches altitude 10° 18:29:41 10° 161° (SSE) 5,734 - -36.7°
Maximum altitude 18:39:56 17° 127° (SE) 5,845 - -38.7°
Drops below altitude 10° 18:51:50 10° 94° (E) 6,891 - -40.9°
Sets 19:00:32 0° 79° (ENE) 7,954 - -42.4°
